Weather History for Hatteras, NC

Change the Weather History Date:

Thursday, May 23, 2013

  Actual Average Record
Temperature  
Mean Temperature 71 °F 69 °F  
Max Temperature 74 °F 76 °F 86 °F (1975)
Min Temperature 68 °F 62 °F 45 °F (1968)
Degree Days  
Heating Degree Days 0 1  
Month to date heating degree days 22 44  
Since 1 July heating degree days 2415 2578  
Cooling Degree Days 6 5  
Month to date cooling degree days 103 70  
Year to date cooling degree days 112 98  
Growing Degree Days 21 (Base 50)    
Moisture  
Dew Point 69 °F    
Average Humidity 92    
Maximum Humidity 97    
Minimum Humidity 87    
Precipitation  
Precipitation 2.15 in 0.11 in 2.56 in (2003)
Month to date precipitation 3.37 2.66  
Year to date precipitation 19.19 20.33  
Snow  
Snow 0.00 in - - ()
Month to date snowfall 0.0  
Since 1 July snowfall 0.0  
Snow Depth 0.00 in    
Sea Level Pressure  
Sea Level Pressure 29.98 in    
Wind  
Wind Speed 13 mph (SSW)    
Max Wind Speed 28 mph    
Max Gust Speed 35 mph    
Visibility 3 miles    
Events Fog , Rain    
T = Trace of Precipitation, MM = Missing Value Source: NWS Daily Summary

Daily Weather History Graph

Daily Weather History Graph

Search for Another Location

Airport:

Trip Planner

Search our weather history database for the weather conditions in past years. The results will help you decide how hot, cold, wet, or windy it might be!

Date:

Astronomy

May. 23, 2013 Rise Set
Actual Time 5:52 AM EDT 8:05 PM EDT
Civil Twilight 5:24 AM EDT 8:34 PM EDT
Nautical Twilight 4:49 AM EDT 9:10 PM EDT
Astronomical Twilight 4:10 AM EDT 9:48 PM EDT
Moon 6:38 PM EDT (5/23) 4:32 AM EDT (5/23)
Length of Visible Light 15h 10m
Length of Day
14h 12m
Waxing Gibbous, 97% of the Moon is Illuminated
May 23
Waxing Gibbous
May 25
Full
May 31
Last Quarter
Jun 8
New
Jun 16
First Quarter

Hourly Weather History & Observations

Time (EDT) Temp. Dew Point Humidity Pressure Visibility Wind Dir Wind Speed Gust Speed Precip Events Conditions
12:51 AM 73.0 °F 69.1 °F 87% 30.05 in 7.0 mi South 12.7 mph - N/A   Clear
1:51 AM 73.0 °F 69.1 °F 87% 30.02 in 7.0 mi South 12.7 mph - N/A   Clear
2:51 AM 73.0 °F 69.1 °F 87% 30.02 in 7.0 mi South 12.7 mph - N/A   Scattered Clouds
3:51 AM 73.0 °F 69.1 °F 87% 30.01 in 5.0 mi South 11.5 mph - 0.00 in Rain Light Rain
4:49 AM 71.6 °F 66.2 °F 83% 30.01 in 7.0 mi SW 11.5 mph 19.6 mph 0.01 in   Overcast
4:51 AM 71.1 °F 66.9 °F 87% 30.01 in 6.0 mi SW 12.7 mph 19.6 mph 0.01 in   Overcast
4:58 AM 69.8 °F 66.2 °F 88% 30.02 in 4.0 mi SW 13.8 mph 19.6 mph 0.00 in Rain Light Rain
5:01 AM 69.8 °F 66.2 °F 88% 30.02 in 4.0 mi SW 19.6 mph 29.9 mph 0.02 in Rain Rain
5:19 AM 69.8 °F 66.2 °F 88% 30.01 in 3.0 mi SW 19.6 mph 33.4 mph 0.06 in Rain Rain
5:28 AM 71.6 °F 68.0 °F 88% 30.02 in 2.0 mi SW 13.8 mph 26.5 mph 0.09 in Rain Heavy Rain
5:51 AM 70.0 °F 68.0 °F 93% 30.01 in 2.5 mi SSW 17.3 mph 24.2 mph 0.21 in Rain Heavy Rain
6:06 AM 69.8 °F 66.2 °F 88% 30.00 in 4.0 mi SSW 13.8 mph 20.7 mph 0.05 in Rain Light Rain
6:39 AM 71.6 °F 69.8 °F 94% 30.01 in 2.0 mi SSW 11.5 mph - 0.09 in Rain Rain
6:51 AM 71.1 °F 69.1 °F 93% 30.01 in 2.0 mi SSW 10.4 mph - 0.11 in Rain Light Rain
7:02 AM 71.6 °F 69.8 °F 94% 30.02 in 1.8 mi SSW 13.8 mph - 0.03 in Rain Rain
7:27 AM 69.8 °F 68.0 °F 94% 30.03 in 1.2 mi SSW 15.0 mph 26.5 mph 0.14 in Rain Rain
7:35 AM 69.8 °F 68.0 °F 94% 30.03 in 1.8 mi SSW 15.0 mph - 0.17 in Rain Rain
7:44 AM 69.8 °F 68.0 °F 94% 30.02 in 2.0 mi SSW 10.4 mph 19.6 mph 0.19 in Rain Rain
7:51 AM 71.1 °F 68.0 °F 90% 30.02 in 1.8 mi SSW 12.7 mph - 0.22 in Rain Rain
8:05 AM 71.6 °F 68.0 °F 88% 30.02 in 1.2 mi SSW 11.5 mph - 0.05 in Rain Rain
8:12 AM 71.6 °F 69.8 °F 94% 30.03 in 1.5 mi SSW 12.7 mph 18.4 mph 0.07 in Rain Rain
8:29 AM 69.8 °F 68.0 °F 94% 30.03 in 1.2 mi SSW 12.7 mph - 0.14 in Rain Rain
8:37 AM 69.8 °F 68.0 °F 94% 30.03 in 1.5 mi SSW 13.8 mph - 0.17 in Rain Rain
8:44 AM 69.8 °F 68.0 °F 94% 30.03 in 1.8 mi SSW 15.0 mph 21.9 mph 0.19 in Rain Rain
8:51 AM 70.0 °F 68.0 °F 93% 30.03 in 1.8 mi SW 17.3 mph 25.3 mph 0.22 in Rain Heavy Rain
9:26 AM 71.6 °F 69.8 °F 94% 30.02 in 2.0 mi SSW 12.7 mph 19.6 mph 0.12 in Rain Rain
9:38 AM 71.6 °F 69.8 °F 94% 30.02 in 1.8 mi SSW 13.8 mph 20.7 mph 0.15 in Rain Rain
9:51 AM 71.1 °F 69.1 °F 93% 30.02 in 2.0 mi SSW 12.7 mph 19.6 mph 0.19 in Rain Rain
10:16 AM 71.6 °F 68.0 °F 88% 30.02 in 3.0 mi SSW 12.7 mph 19.6 mph 0.03 in Rain Light Rain
10:35 AM 71.6 °F 68.0 °F 88% 30.02 in 2.0 mi South 19.6 mph 24.2 mph 0.07 in Rain Rain
10:51 AM 71.1 °F 68.0 °F 90% 30.03 in 2.5 mi South 13.8 mph 23.0 mph 0.11 in Rain Light Rain
10:58 AM 71.6 °F 69.8 °F 94% 30.02 in 3.0 mi SSW 15.0 mph 20.7 mph 0.00 in Rain Light Rain
11:10 AM 71.6 °F 69.8 °F 94% 30.02 in 2.5 mi SSW 12.7 mph 19.6 mph 0.03 in Rain Rain
11:32 AM 71.6 °F 69.8 °F 94% 30.02 in 1.5 mi South 10.4 mph - 0.10 in Rain Rain
11:38 AM 71.6 °F 69.8 °F 94% 30.01 in 3.0 mi South 8.1 mph - 0.11 in Rain Light Rain
11:51 AM 71.1 °F 68.0 °F 90% 30.01 in 4.0 mi South 8.1 mph - 0.12 in Rain Light Rain
11:59 AM 71.6 °F 68.0 °F 88% 30.01 in 4.0 mi South 10.4 mph - 0.00 in Rain Light Rain
12:06 PM 71.6 °F 69.8 °F 94% 30.00 in 3.0 mi South 11.5 mph - 0.01 in Rain Light Rain
12:20 PM 71.6 °F 68.0 °F 88% 30.00 in 2.0 mi SSW 20.7 mph 31.1 mph 0.04 in Rain Rain
12:27 PM 71.6 °F 68.0 °F 88% 30.00 in 3.0 mi South 15.0 mph 28.8 mph 0.06 in Rain Rain
12:35 PM 71.6 °F 69.8 °F 94% 30.00 in 2.5 mi South 15.0 mph 25.3 mph 0.07 in Rain Light Rain
12:51 PM 72.0 °F 68.0 °F 87% 29.99 in 2.0 mi South 19.6 mph - 0.11 in Rain Rain
1:15 PM 71.6 °F 69.8 °F 94% 29.98 in 3.0 mi SSW 17.3 mph 25.3 mph 0.04 in Rain Light Rain
1:31 PM 71.6 °F 69.8 °F 94% 29.98 in 3.0 mi South 13.8 mph 21.9 mph 0.05 in Rain Light Rain
1:47 PM 71.6 °F 69.8 °F 94% 29.97 in 4.0 mi South 17.3 mph 23.0 mph 0.06 in Rain Light Rain
1:51 PM 72.0 °F 69.1 °F 91% 29.97 in 3.0 mi South 17.3 mph - 0.06 in Rain Light Rain
2:47 PM 71.6 °F 68.0 °F 88% 29.94 in 2.5 mi South 17.3 mph 25.3 mph 0.07 in Rain Rain
2:51 PM 72.0 °F 68.0 °F 87% 29.94 in 2.0 mi South 17.3 mph 25.3 mph 0.08 in Rain Rain
3:40 PM 71.6 °F 69.8 °F 94% 29.89 in 1.8 mi SSE 18.4 mph 27.6 mph 0.16 in Rain Rain
3:51 PM 73.0 °F 70.0 °F 90% 29.88 in 1.8 mi SSE 17.3 mph - 0.19 in Rain Rain
4:17 PM 71.6 °F 69.8 °F 94% 29.87 in 0.8 mi South 25.3 mph 34.5 mph 0.07 in Rain Heavy Rain
4:22 PM 71.6 °F 69.8 °F 94% 29.87 in 0.2 mi SSE 18.4 mph 34.5 mph 0.21 in Fog , Rain Heavy Rain
4:35 PM 71.6 °F 69.8 °F 94% 29.87 in 1.0 mi SSW 15.0 mph 24.2 mph 0.52 in Rain Light Rain
4:37 PM 71.6 °F 69.8 °F 94% 29.87 in 2.5 mi SSW 12.7 mph 23.0 mph 0.52 in Rain Light Rain
4:44 PM 73.4 °F 69.8 °F 88% 29.87 in 5.0 mi SSW 12.7 mph 20.7 mph 0.52 in   Overcast
4:51 PM 73.0 °F 71.1 °F 93% 29.87 in 3.0 mi SSW 11.5 mph - 0.52 in   Overcast
5:51 PM 73.9 °F 70.0 °F 87% 29.87 in 4.0 mi SW 10.4 mph - N/A   Mostly Cloudy
6:51 PM 73.0 °F 70.0 °F 90% 29.87 in 5.0 mi SSW 12.7 mph 18.4 mph N/A   Partly Cloudy
7:51 PM 73.0 °F 70.0 °F 90% 29.86 in 5.0 mi WSW 10.4 mph - N/A   Clear
8:51 PM 73.0 °F 69.1 °F 87% 29.88 in 6.0 mi SW 10.4 mph - N/A   Clear
9:51 PM 73.0 °F 69.1 °F 87% 29.88 in 5.0 mi SW 10.4 mph - N/A   Clear
10:51 PM 73.0 °F 70.0 °F 90% 29.87 in 6.0 mi SSW 11.5 mph - N/A   Clear
11:51 PM 72.0 °F 69.1 °F 91% 29.86 in 5.0 mi SSW 9.2 mph 16.1 mph N/A   Clear